Latest Coastal Weather Observations for Cape Nelson

IDS60701

Issued at 10:21 pm CST Saturday 30 May 2015 (issued every 10 minutes, with the page automatically refreshed every 10 minutes)

About coastal observations | Map of coastal stations | Coastal observations for SA | Marine services | Other Formats
Station Details ID: 090184 Name: CAPE NELSON LIGHTHOUSE Lat: -38.43 Lon: 141.54 Height: 45.4 m
Data from the previous 72 hours. | See also: Recent months at Cape Nelson
Date/Time
CST
Temp

°C
Wind Pressure Rain
since 9am
mm
Weather Cloud Vis
km
Sea
Height
m
Swell
Dir
 
Speed
knots
Gust
knots
hPa Trend Height
m
Period
s
Dir
30/10:13pm 13.4 WNW 22 32 1013.9 - 1.0 - - - - - - -
30/10:00pm 13.7 WNW 22 29 1014.0 - 1.0 - - - - - - -
30/09:30pm 13.5 WNW 22 30 1014.2 - 1.0 - - - - - - -
30/09:00pm 13.4 WNW 22 28 1014.3 - 1.0 - - - - - - -
30/08:30pm 13.6 WNW 21 30 1014.4 - 1.0 Recent precip. - - - - - -
30/08:06pm 12.5 WNW 19 29 1014.5 - 1.0 - - - - - - -
30/08:00pm 12.3 WNW 21 29 1014.6 - 1.0 - - - - - - -
30/07:30pm 13.7 WNW 16 27 1014.6 - 0.6 - - - - - - -
30/07:28pm 13.7 WNW 17 27 1014.7 - 0.6 - - - - - - -
30/07:00pm 13.9 WNW 20 28 1014.5 - 0.6 - - - - - - -
30/06:30pm 13.8 WNW 20 28 1014.5 - 0.6 - - - - - - -
30/06:00pm 13.9 WNW 21 31 1014.5 - 0.6 - - - - - - -
30/05:30pm 13.9 WNW 20 31 1014.5 - 0.6 - - - - - - -
30/05:08pm 14.0 WNW 21 31 1014.4 - 0.6 - - - - - - -
30/05:00pm 13.8 WNW 20 28 1014.4 - 0.6 - - - - - - -
30/04:39pm 13.7 WNW 21 31 1014.3 - 0.6 - - - - - - -
30/04:30pm 13.7 WNW 22 31 1014.3 - 0.6 - - - - - - -
30/04:00pm 13.5 W 19 31 1014.3 - 0.6 - - - - - - -
30/03:30pm 13.9 WNW 19 30 1014.3 - 0.6 - - - - - - -
30/03:00pm 14.2 WNW 21 31 1014.2 - 0.6 - - - - - - -
30/02:30pm 14.1 WNW 22 33 1014.2 - 0.6 - - - - - - -
30/02:03pm 14.1 WNW 23 35 1014.1 - 0.6 - - - - - - -
30/02:00pm 14.1 WNW 23 32 1014.2 - 0.6 - - - - - - -
30/01:37pm 14.5 WNW 23 33 1014.5 - 0.6 - - - - - - -
30/01:30pm 14.5 WNW 25 33 1014.5 - 0.6 - - - - - - -
30/01:00pm 14.1 WNW 23 36 1014.7 - 0.6 - - - - - - -
30/12:34pm 14.5 WNW 19 29 1015.0 - 0.6 - - - - - - -
30/12:30pm 14.6 WNW 20 28 1015.1 - 0.6 - - - - - - -
30/12:00pm 13.6 WNW 20 30 1015.5 - 0.6 - - - - - - -
30/11:30am 14.4 WNW 21 32 1015.9 - 0.4 - - - - - - -
30/11:00am 14.0 W 19 35 1016.5 - 0.4 - - - - - - -
30/10:30am 13.5 WNW 21 32 1016.6 - 0.4 - - - - - - -
30/10:24am 13.2 WNW 17 29 1016.7 - 0.4 - - - - - - -
30/10:00am 12.3 NW 20 27 1016.8 - 0.4 - - - - - - -
30/09:42am 11.9 NW 19 29 1016.8 - 0.4 - - - - - - -
30/09:30am 11.5 NW 20 29 1016.9 - 0.4 - - - - - - -
30/09:04am 11.2 NW 19 29 1016.9 - 0.2 - - - - - - -
30/09:00am 11.3 NW 19 25 1016.9 - 0.2 - - - - - - -
30/08:30am 11.1 NW 19 30 1017.0 - 2.2 Recent precip. - - - - - -
30/08:03am 11.1 NW 17 27 1016.8 - 2.2 - - - - - - -
30/08:00am 11.0 NW 18 25 1016.9 - 2.2 - - - - - - -
30/07:30am 11.1 NW 18 27 1016.7 - 2.0 - - - - - - -
30/07:10am 11.1 NNW 15 25 1016.9 - 2.0 - - - - - - -
30/07:00am 11.0 NW 16 25 1017.0 - 2.0 - - - - - - -
30/06:30am 10.6 NW 19 25 1016.7 - 2.0 - - - - - - -
30/06:00am 10.4 NNW 15 25 1016.8 - 2.0 - - - - - - -
30/05:57am 10.3 NW 16 26 1016.8 - 2.0 - - - - - - -
30/05:30am 10.4 NW 19 26 1016.8 - 2.0 - - - - - - -
30/05:00am 10.2 NW 16 23 1017.0 - 2.0 - - - - - - -
30/04:30am 9.8 NW 11 17 1017.4 - 2.0 - - - - - - -
30/04:00am 9.5 NNW 14 19 1017.3 - 2.0 - - - - - - -
30/03:30am 9.6 NNW 13 22 1017.4 - 2.0 - - - - - - -
30/03:00am 9.6 NNW 12 17 1017.8 - 2.0 - - - - - - -
30/02:30am 9.7 NNW 14 22 1018.0 - 2.0 - - - - - - -
30/02:00am 10.2 NNW 13 20 1018.4 - 2.0 - - - - - - -
30/01:30am 9.8 NNW 12 17 1018.8 - 2.0 - - - - - - -
30/01:00am 9.6 NNW 13 18 1018.8 - 2.0 - - - - - - -
30/12:30am 9.3 NNW 12 16 1019.1 - 2.0 - - - - - - -
30/12:00am 9.5 NNW 12 17 1019.5 - 2.0 - - - - - - -
 
Date/Time
CST
Temp

°C
Wind Pressure Rain
since 9am
mm
Weather Cloud Vis
km
Sea
Height
m
Swell
Dir
 
Speed
knots
Gust
knots
hPa Trend Height
m
Period
s
Dir
29/11:30pm 9.7 NNW 12 18 1019.9 - 2.0 - - - - - - -
29/11:00pm 9.8 NNW 12 18 1020.1 - 2.0 - - - - - - -
29/10:30pm 9.9 NNW 13 18 1020.2 - 2.0 - - - - - - -
29/10:00pm 10.1 NNW 11 16 1020.3 - 2.0 - - - - - - -
29/09:30pm 10.3 NNW 11 15 1020.4 - 2.0 - - - - - - -
29/09:00pm 10.7 NW 12 19 1020.4 - 2.0 - - - - - - -
29/08:30pm 10.9 NW 15 21 1020.3 - 2.0 Recent precip. - - - - - -
29/08:00pm 11.5 NW 14 18 1020.3 - 1.8 - - - - - - -
29/07:30pm 12.4 WNW 15 20 1020.5 - 1.8 - - - - - - -
29/07:00pm 12.6 WNW 16 21 1020.2 - 1.8 - - - - - - -
29/06:30pm 12.5 WNW 17 22 1020.2 - 1.8 - - - - - - -
29/06:00pm 12.3 WNW 16 23 1020.1 - 1.8 - - - - - - -
29/05:30pm 12.6 WNW 16 22 1020.1 - 1.8 - - - - - - -
29/05:00pm 12.4 WNW 16 23 1020.1 - 1.8 - - - - - - -
29/04:30pm 12.2 WNW 15 20 1019.9 - 1.8 - - - - - - -
29/04:00pm 12.5 WNW 13 20 1019.9 - 1.8 - - - - - - -
29/03:30pm 12.4 WNW 15 19 1019.8 - 1.8 - - - - - - -
29/03:00pm 12.6 WNW 16 23 1019.9 - 1.8 - - - - - - -
29/02:30pm 12.5 W 13 18 1019.8 - 1.8 Recent precip. - - - - - -
29/02:00pm 11.8 WNW 15 24 1019.8 - 1.8 - - - - - - -
29/01:30pm 13.0 WNW 14 21 1019.8 - 1.2 - - - - - - -
29/01:00pm 12.3 WNW 15 28 1020.0 - 0.8 - - - - - - -
29/12:30pm 12.7 W 11 16 1020.1 - 0.8 - - - - - - -
29/12:00pm 11.6 WNW 14 19 1020.4 - 0.8 - - - - - - -
29/11:30am 13.2 NW 11 17 1020.4 - 0.2 - - - - - - -
29/11:00am 12.7 NNW 11 17 1020.5 - 0.2 - - - - - - -
29/10:30am 12.0 NW 13 21 1020.9 - 0.2 - - - - - - -
29/10:00am 12.4 NW 14 20 1020.6 - 0.0 - - - - - - -
29/09:38am 12.8 W 15 26 1020.5 - 0.0 - - - - - - -
29/09:30am 13.1 W 13 19 1020.3 - 0.0 - - - - - - -
29/09:00am 12.9 W 15 24 1020.1 - 0.0 - - - - - - -
29/08:30am 12.8 W 16 27 1020.1 - 4.0 - - - - - - -
29/08:00am 13.0 W 17 21 1019.7 - 4.0 - - - - - - -
29/07:30am 12.7 W 19 29 1019.5 - 4.0 - - - - - - -
29/07:21am 12.4 W 15 29 1019.5 - 4.0 - - - - - - -
29/07:00am 11.6 WNW 17 23 1019.3 - 4.0 - - - - - - -
29/06:35am 13.0 W 16 26 1018.9 - 4.0 - - - - - - -
29/06:30am 12.7 W 17 26 1018.8 - 4.0 - - - - - - -
29/06:00am 12.4 W 20 31 1018.5 - 4.0 - - - - - - -
29/05:51am 12.9 W 21 31 1018.4 - 4.0 - - - - - - -
29/05:30am 12.9 W 18 27 1018.3 - 4.0 - - - - - - -
29/05:03am 12.5 W 20 30 1018.1 - 4.0 - - - - - - -
29/05:00am 12.5 W 21 29 1018.1 - 4.0 - - - - - - -
29/04:34am 12.6 W 19 30 1017.9 - 4.0 - - - - - - -
29/04:30am 12.5 W 19 27 1017.9 - 4.0 - - - - - - -
29/04:00am 12.5 W 19 26 1017.8 - 3.8 - - - - - - -
29/03:30am 12.6 W 18 28 1017.6 - 3.8 - - - - - - -
29/03:00am 12.7 W 18 28 1017.6 - 3.8 - - - - - - -
29/02:30am 12.6 W 19 29 1017.5 - 3.8 - - - - - - -
29/02:00am 12.8 W 21 32 1017.2 - 3.8 - - - - - - -
29/01:30am 12.6 W 18 29 1017.1 - 3.8 - - - - - - -
29/01:00am 12.6 W 19 32 1016.9 - 3.8 - - - - - - -
29/12:40am 12.7 W 19 29 1017.0 - 3.8 - - - - - - -
29/12:30am 12.2 WNW 19 27 1017.0 - 3.8 - - - - - - -
29/12:00am 12.3 W 18 29 1017.0 - 3.8 - - - - - - -
 
Date/Time
CST
Temp

°C
Wind Pressure Rain
since 9am
mm
Weather Cloud Vis
km
Sea
Height
m
Swell
Dir
 
Speed
knots
Gust
knots
hPa Trend Height
m
Period
s
Dir
28/11:33pm 12.2 W 24 34 1017.0 - 3.8 - - - - - - -
28/11:30pm 12.3 W 26 34 1016.9 - 3.8 - - - - - - -
28/11:00pm 12.7 W 16 28 1016.6 - 3.8 - - - - - - -
28/10:30pm 12.6 W 19 29 1016.4 - 3.8 - - - - - - -
28/10:00pm 12.1 WNW 18 30 1016.3 - 3.6 - - - - - - -
28/09:37pm 12.8 W 18 28 1016.2 - 3.6 - - - - - - -
28/09:30pm 12.6 W 21 28 1016.2 - 3.6 - - - - - - -
28/09:01pm 12.2 WNW 16 26 1016.1 - 3.6 - - - - - - -
28/09:00pm 12.5 WNW 17 26 1016.1 - 3.6 - - - - - - -
28/08:30pm 11.7 W 20 33 1015.9 - 3.6 Rain - - - - - -
28/08:06pm 12.5 W 20 30 1015.5 - 3.4 - - - - - - -
28/08:00pm 12.3 W 23 31 1015.5 - 3.4 - - - - - - -
28/07:30pm 13.0 W 18 31 1015.2 - 3.4 - - - - - - -
28/07:00pm 13.1 W 22 33 1014.7 - 3.4 - - - - - - -
28/06:55pm 13.0 W 20 33 1014.7 - 3.4 - - - - - - -
28/06:30pm 13.1 WNW 20 29 1014.5 - 3.4 - - - - - - -
28/06:00pm 13.2 W 19 30 1014.3 - 3.4 - - - - - - -
28/05:41pm 13.0 W 21 31 1014.0 - 3.4 - - - - - - -
28/05:30pm 12.1 WNW 19 28 1014.0 - 3.4 Recent precip. - - - - - -
28/05:00pm 12.7 WNW 17 27 1013.6 - 3.2 - - - - - - -
28/04:30pm 13.7 WNW 23 34 1013.1 - 3.2 - - - - - - -
28/04:03pm 13.3 WNW 17 27 1013.0 - 3.2 - - - - - - -
28/04:00pm 13.4 WNW 18 27 1013.0 - 3.2 - - - - - - -
28/03:30pm 12.7 W 15 25 1012.8 - 3.2 - - - - - - -
28/03:07pm 13.7 W 15 25 1012.6 - 2.6 - - - - - - -
28/03:00pm 13.3 WNW 18 26 1012.6 - 2.6 - - - - - - -
28/02:33pm 13.2 W 21 31 1012.4 - 2.6 - - - - - - -
28/02:30pm 13.4 W 24 31 1012.4 - 2.6 Recent precip. - - - - - -
28/02:00pm 12.9 W 19 33 1011.9 - 2.6 - - - - - - -
28/01:35pm 13.4 WNW 20 30 1011.8 - 2.2 - - - - - - -
28/01:30pm 14.1 WNW 22 30 1011.8 - 2.0 - - - - - - -
28/01:00pm 15.7 NW 23 33 1011.2 - 0.8 - - - - - - -
28/12:30pm 14.5 NW 23 33 1011.7 - 0.8 - - - - - - -
28/12:00pm 13.8 NW 23 35 1012.1 - 0.2 - - - - - - -
28/11:30am 16.2 NW 21 31 1011.9 - 0.0 - - - - - - -
28/11:25am 16.1 NW 21 31 1012.0 - 0.0 - - - - - - -
28/11:00am 15.5 NW 21 30 1012.6 - 0.0 - - - - - - -
28/10:53am 15.0 NW 20 30 1012.8 - 0.0 - - - - - - -
28/10:30am 14.5 NW 20 27 1013.0 - 0.0 - - - - - - -
28/10:00am 14.9 NW 21 31 1013.1 - 0.0 - - - - - - -
28/09:35am 14.9 NNW 21 31 1012.9 - 0.0 - - - - - - -
28/09:30am 15.0 NNW 19 28 1013.0 - 0.0 - - - - - - -
28/09:00am 14.4 NNW 16 29 1013.3 - 0.0 - - - - - - -
28/08:48am 13.7 NNW 16 26 1013.3 - 0.0 - - - - - - -
28/08:30am 13.7 NNW 15 24 1013.4 - 4.6 - - - - - - -
28/08:00am 13.1 NNW 12 17 1013.5 - 4.6 - - - - - - -
28/07:30am 12.8 NNW 13 19 1013.4 - 4.6 - - - - - - -
28/07:00am 13.1 NNW 14 19 1013.4 - 4.6 - - - - - - -
28/06:30am 12.9 NW 18 25 1013.5 - 4.6 - - - - - - -
28/06:09am 12.5 NW 17 27 1013.3 - 4.6 - - - - - - -
28/06:00am 12.3 NNW 15 23 1013.4 - 4.6 - - - - - - -
28/05:38am 12.5 NNW 15 25 1013.1 - 4.6 - - - - - - -
28/05:30am 12.6 NNW 15 22 1013.2 - 4.6 - - - - - - -
28/05:00am 13.0 NNW 14 21 1013.4 - 4.6 - - - - - - -
28/04:30am 13.1 NNW 11 18 1013.5 - 4.6 - - - - - - -
28/04:00am 13.1 NW 14 21 1013.6 - 4.6 - - - - - - -
28/03:30am 13.4 NNW 13 20 1013.9 - 4.0 - - - - - - -
28/03:00am 13.2 NNW 13 20 1014.1 - 3.8 - - - - - - -
28/02:30am 12.7 NNW 11 17 1014.1 - 3.8 - - - - - - -
28/02:00am 12.9 NNW 12 17 1014.3 - 3.8 - - - - - - -
28/01:30am 13.2 NNW 13 19 1014.5 - 3.8 - - - - - - -
28/01:00am 13.2 NNW 13 18 1014.5 - 3.8 - - - - - - -
28/12:30am 13.1 NNW 13 19 1014.9 - 3.8 - - - - - - -
28/12:00am 13.4 NW 17 28 1015.2 - 3.8 - - - - - - -
 
Date/Time
CST
Temp

°C
Wind Pressure Rain
since 9am
mm
Weather Cloud Vis
km
Sea
Height
m
Swell
Dir
 
Speed
knots
Gust
knots
hPa Trend Height
m
Period
s
Dir
27/11:58pm 13.6 NW 16 28 1015.3 - 3.8 - - - - - - -
27/11:30pm 14.3 NW 13 20 1015.7 - 3.2 Rain - - - - - -
27/11:00pm 14.1 NNW 13 19 1015.5 - 2.2 - - - - - - -
27/10:30pm 13.9 NNW 13 18 1015.5 - 2.2 - - - - - - -
27/10:00pm 13.9 NNW 13 20 1015.5 - 2.2 - - - - - - -

Other Formats:

Comma delimited format used in spreadsheet applications
http://www.bom.gov.au/fwo/IDS60701/IDS60701.94826.axf

JavaScript Object Notation format (JSON) in row-major order
http://www.bom.gov.au/fwo/IDS60701/IDS60701.94826.json